SCP
0 0 0 0 0 0 0 0 0 0 0 0 0 -0 -0 0 0 0 0 -0 0 0 0 1 1 2 1 1 1 1 1 0 0 0 0 0 -0 -0 -0 -0 -0 -0 -0 -0 -0 -0 -0 -0 -0
0 0 0 0 0 0 0 0 -0 0 0 0 0 0 0 0 0 0 0 -0 -0 0 0 1 2 2 2 0 1 1 0 0 0 0 0 0 -0 -0 -0 -0 -0 -0 -0 -0 -0 -0 -0 -0 -0
0 0 0 0 0 0 -0 0 0 0 0 0 0 0 0 0 0 0 0 1 -0 0 0 0 1 1 2 0 0 1 1 0 1 0 0 0 0 -0 -0 -0 -0 -0 -0 -0 -0 -0 -0 -0 -0
0 0 0 0 0 -0 0 -0 -0 0 0 0 0 0 0 0 1 0 0 0 0 -0 0 0 1 2 1 0 3 1 1 0 1 1 0 0 0 0 0 0 0 0 0 0 0 0 -0 -0 -0
0 0 0 0 0 -0 -0 -0 -0 0 0 0 0 0 0 0 0 0 0 1 1 1 1 1 1 0 1 0 0 1 1 1 1 1 0 0 0 0 0 0 0 0 0 0 0 0 0 0 0
0 0 0 0 0 -0 0 0 0 0 0 0 0 0 0 0 0 0 0 1 1 0 0 0 0 0 0 0 0 0 1 1 1 1 0 0 0 0 0 0 0 0 0 0 0 0 0 0 0
0 0 0 0 -0 -0 0 0 0 0 0 0 0 0 0 0 0 0 0 0 0 0 0 0 0 0 0 0 0 1 1 1 1 0 0 0 0 0 0 0 0 0 0 0 0 0 0 0 0
0 0 -0 0 0 -0 0 0 0 0 0 0 0 0 0 -0 0 0 0 0 0 0 0 0 0 0 -0 -0 0 0 0 1 1 0 0 0 0 0 0 0 0 0 0 0 0 0 0 0 0
0 0 0 0 0 0 0 0 0 0 0 0 0 0 0 0 0 -0 0 0 0 0 0 0 0 0 0 0 -0 0 0 0 0 0 0 0 0 0 0 0 0 -0 -0 0 0 0 0 0 -0
0 0 0 0 0 0 0 0 0 0 0 0 0 0 0 0 0 0 0 0 0 0 0 0 0 0 0 0 0 -0 0 0 0 0 0 0 0 0 0 0 0 0 -0 0 0 0 0 0 0
0 0 0 -0 0 0 0 0 0 0 0 -0 0 0 0 0 0 0 0 0 0 0 0 0 0 0 0 0 0 -0 0 0 0 0 0 0 0 0 0 0 0 0 0 0 0 0 0 0 0
0 0 0 -0 0 0 0 0 0 0 0 0 -0 0 0 0 0 0 0 0 0 0 0 0 0 0 0 0 -0 0 0 0 0 0 0 0 0 0 0 0 0 0 0 0 0 0 0 0 0
0 0 -0 0 -0 -0 0 0 0 0 -0 -0 0 0 0 0 0 0 0 0 0 0 0 0 0 0 0 0 0 0 0 0 0 0 0 0 0 0 0 -0 0 0 0 0 0 0 0 0 0
-0 -0 -0 -0 0 0 0 0 0 0 -0 0 0 0 0 0 0 0 0 0 0 0 0 0 0 0 0 0 0 0 0 0 0 0 0 0 0 0 0 0 0 0 0 0 0 -0 0 0 0
-0 -0 -0 0 -0 0 -0 0 0 0 0 0 -0 0 0 0 0 0 -0 0 0 0 0 0 0 0 0 0 0 0 0 0 0 0 0 0 0 0 0 -0 0 -0 0 0 0 0 0 0 0
-0 -0 0 0 0 -0 0 0 0 0 0 0 0 -0 0 0 0 0 -0 -0 0 0 0 0 0 0 0 0 0 0 0 0 0 0 0 0 0 -0 -0 0 -0 -0 0 0 0 0 0 0 0
0 0 0 0 0 0 -0 0 0 0 0 0 0 0 0 -0 -0 -0 -0 -0 -0 -0 0 -0 -0 -0 0 0 0 0 0 0 0 0 0 0 0 -0 0 -0 -0 0 0 0 0 0 0 0 0
0 0 0 0 0 0 0 0 0 -0 0 0 0 0 0 0 -0 -0 -0 -0 -0 -0 -0 -0 -0 -0 0 0 0 0 0 0 0 0 0 0 -0 0 0 -0 0 0 0 0 0 0 0 0 0
-0 -0 0 0 0 0 0 0 0 -0 -0 0 0 0 -0 -0 0 -0 0 -0 -0 -0 -0 -0 -0 -0 0 0 0 -0 -0 0 0 0 0 0 -0 -0 -0 0 0 0 0 0 0 0 0 0 0
-0 -0 0 0 0 0 0 0 0 -0 -0 -0 -0 -0 -0 -0 -0 -0 -0 -0 -0 -0 -0 0 0 0 0 0 -0 -0 -0 -0 -0 -0 -0 -0 -0 -0 -0 -0 -0 0 0 0 0 0 0 0 0
-0 0 0 0 0 0 0 0 0 0 0 -0 -0 -0 -0 -0 -0 -0 -0 -0 -0 -0 -0 0 0 -0 -0 -0 -0 -0 -0 -0 -0 -0 -0 -0 -0 -0 -0 -0 0 0 0 0 0 0 0 0 0
-0 0 0 0 0 0 0 -0 0 0 -0 -0 -0 -0 -0 -0 -0 -0 -0 -0 -0 -0 -0 0 0 0 0 0 0 0 -0 0 0 0 -0 -0 -0 -0 0 0 0 0 0 0 0 0 0 0 0
0 0 0 0 0 0 0 0 -0 0 0 -0 -0 -0 -0 -0 -0 -0 -0 -0 -0 -0 -0 0 0 0 0 0 0 0 0 0 0 -0 -0 -0 -0 -0 0 0 0 0 0 0 0 0 0 0 0
0 0 0 0 0 0 0 0 -0 -0 0 -0 -0 -0 -0 -0 -0 -0 -0 -0 -0 -0 -0 -0 0 0 0 0 0 -0 0 0 0 -0 -0 -0 -0 0 0 0 0 0 0 0 0 0 0 0 0
0 0 0 0 0 0 0 -0 -0 -0 0 0 -0 -0 -0 -0 -0 -0 -0 -0 -0 -0 -0 -0 -0 0 0 -0 -0 -0 0 0 0 0 -0 -0 0 0 0 0 0 0 0 0 0 0 0 0 0
0 0 0 0 0 -0 0 -0 -0 -0 0 0 -0 -0 -0 -0 -0 -0 -0 -0 -0 -0 -0 -0 -0 -0 -0 -0 -0 0 0 0 0 0 -0 0 0 0 0 0 0 0 0 0 0 0 0 0 0
0 0 0 0 0 0 -0 -0 -0 -0 0 0 0 -0 -0 -0 -0 -0 -0 -0 -0 -0 -0 -0 -0 -0 -0 -0 -0 -0 0 0 -0 0 0 0 0 0 0 0 0 0 0 0 0 0 0 0 0
0 0 0 0 0 0 -0 -0 0 0 0 0 0 -0 -0 -0 -0 -0 -0 -0 -0 -0 -0 -0 -0 -0 -0 -0 -0 -0 0 0 0 0 0 0 0 0 0 0 0 0 0 0 0 0 0 0 0
0 0 0 0 0 0 0 0 0 0 0 0 0 0 0 0 -0 -0 -0 -0 -0 -0 -0 -0 -0 -0 0 0 0 0 0 0 0 0 0 0 0 0 0 0 0 0 0 0 0 0 0 0 0
0 0 0 0 0 0 0 -0 0 0 -0 0 0 0 0 0 0 0 -0 -0 -0 -0 -0 -0 0 0 0 0 0 0 0 0 0 0 0 0 0 -0 0 0 0 0 0 0 0 0 0 0 0
Wind_Speed_500mb
1 3 3 4 8 9 9 12 7 18 14 7 11 13 20 16 8 10 14 16 33 44 39 42 48 58 57 50 54 52 50 46 43 50 56 58 58 60 61 59 59 56 56 55 56 57 55 50 48
4 4 4 4 8 2 11 13 18 14 24 6 13 15 18 9 17 21 14 8 24 36 34 42 54 62 59 44 54 56 51 47 46 55 59 61 64 67 65 60 57 56 56 55 56 55 49 44 42
3 4 1 7 6 8 10 11 13 13 30 5 10 20 8 8 4 11 7 7 41 49 44 46 51 47 60 67 60 62 57 52 53 59 62 65 68 69 65 63 59 56 57 57 57 57 53 40 39
4 2 3 6 14 20 13 31 40 19 9 21 7 12 4 4 6 6 10 13 22 49 47 61 56 69 69 94 83 63 56 51 58 58 61 64 68 68 65 63 60 57 56 55 58 58 46 36 35
3 2 5 5 14 16 22 42 4 14 12 17 1 5 6 12 14 15 13 12 15 24 31 28 44 51 66 76 89 77 67 55 62 62 61 63 68 68 65 61 59 56 54 55 59 57 41 34 33
4 3 4 7 14 15 13 17 21 23 12 7 10 11 7 19 17 13 10 12 17 21 31 42 55 24 59 79 89 83 71 60 68 65 61 66 70 68 64 60 57 54 52 51 54 54 44 34 32
10 7 9 9 20 17 8 28 20 11 11 4 16 8 4 8 18 17 7 12 20 26 29 29 45 29 51 99 84 77 76 82 77 68 65 68 69 66 64 58 56 53 49 49 50 54 47 37 23
7 9 6 9 9 19 19 8 25 16 4 15 4 5 4 19 13 15 8 5 18 22 37 43 37 43 46 38 31 55 65 80 79 72 67 66 68 63 61 56 55 53 49 49 49 51 47 39 26
7 3 9 14 6 12 20 8 14 20 18 9 2 4 8 19 19 12 6 7 12 24 30 37 33 24 6 18 33 34 45 70 77 72 65 65 67 64 57 55 54 51 48 48 48 47 45 38 25
9 6 15 14 6 11 10 10 28 9 4 1 6 1 4 2 10 15 14 6 15 17 15 23 20 26 34 35 42 69 73 56 65 67 67 64 64 63 60 55 52 49 47 42 40 38 38 35 23
9 12 23 43 27 3 20 10 12 19 1 11 6 18 13 9 9 12 20 22 23 19 20 20 30 32 39 45 66 76 83 71 64 64 63 63 64 62 61 55 48 47 39 35 29 28 28 27 22
4 26 38 44 17 3 13 26 11 10 12 10 17 24 20 19 20 22 26 26 26 26 27 25 34 37 55 71 78 71 77 82 82 75 67 61 64 60 55 50 44 39 35 30 27 23 20 19 19
10 15 26 42 17 20 39 16 17 13 23 16 25 27 31 22 21 28 32 29 32 33 45 36 40 45 57 81 77 83 78 78 78 78 74 64 62 54 46 44 40 34 32 28 23 20 14 13 15
18 24 32 25 18 9 9 7 4 10 33 26 28 27 25 28 33 32 32 31 33 40 46 50 51 61 67 75 75 81 75 74 72 72 72 66 58 51 48 40 34 33 27 23 17 15 11 15 15
25 13 18 19 8 5 28 5 11 29 33 39 29 30 25 31 27 20 28 29 34 39 50 69 57 60 66 77 85 86 79 78 76 71 65 64 53 46 40 35 34 30 23 20 15 14 15 15 10
11 5 7 8 4 14 18 11 12 34 42 30 18 31 30 28 20 15 27 28 34 38 37 52 57 63 65 76 91 86 85 81 75 73 63 53 43 36 37 32 29 26 25 18 12 18 15 12 9
6 10 10 18 14 6 5 8 11 40 37 32 29 34 29 24 25 19 21 31 33 32 35 55 60 62 77 81 88 74 74 80 80 70 58 56 46 35 33 31 31 26 22 21 21 24 21 17 19
12 8 6 11 12 7 3 7 9 44 37 37 44 28 33 35 31 21 21 29 36 34 34 54 69 62 69 76 88 72 71 77 78 70 66 69 43 37 37 33 27 28 30 31 33 31 28 27 27
12 13 17 23 20 12 15 15 22 33 26 27 35 37 46 44 34 27 24 30 36 40 43 49 67 63 74 75 83 84 84 76 71 76 83 46 35 40 39 37 35 37 42 38 35 37 37 37 37
18 26 28 20 8 14 14 16 15 23 27 40 44 39 56 52 45 39 34 40 43 49 57 62 66 63 69 70 82 86 87 75 81 79 64 48 46 45 44 41 42 42 45 43 44 45 43 41 43
29 26 27 17 9 8 3 10 5 14 12 28 46 59 60 70 62 55 48 49 52 56 65 71 70 71 78 84 75 72 81 70 87 91 68 53 53 48 42 41 42 48 54 49 45 47 47 45 46
22 21 17 11 5 6 7 10 9 14 32 20 40 57 69 73 73 65 58 57 61 60 65 71 74 76 77 77 74 77 83 83 97 92 72 60 61 55 53 48 48 54 52 50 51 48 50 51 52
25 32 15 11 7 4 7 1 13 9 19 20 30 59 75 85 87 85 73 64 60 64 67 70 72 75 80 81 79 81 79 81 84 83 73 70 65 60 59 58 57 58 59 62 58 57 59 54 53
33 9 6 6 4 7 10 11 8 11 19 29 46 68 75 85 93 89 81 71 71 69 69 73 79 83 90 87 83 77 73 72 74 77 73 68 67 67 67 66 62 59 61 63 64 63 58 56 53
14 9 4 7 4 14 11 7 14 19 26 25 44 74 83 90 85 95 90 87 81 83 82 81 87 95 94 85 80 78 73 70 70 68 69 70 70 68 65 64 65 64 57 65 67 68 63 60 59
15 18 11 11 8 11 7 10 11 12 16 20 63 81 79 81 95 94 100 92 91 91 91 92 98 101 96 87 83 80 76 76 78 75 72 71 70 63 52 51 57 53 56 69 62 65 64 59 55
9 8 15 10 3 3 7 15 15 13 1 3 31 50 66 78 92 101 100 97 95 99 103 104 102 105 101 92 84 86 86 88 85 80 82 82 75 65 59 56 62 62 63 38 41 40 41 44 49
21 12 6 3 7 8 9 11 12 8 2 5 15 40 64 82 87 90 100 103 99 98 105 107 106 106 102 98 94 90 85 85 85 85 88 85 82 65 57 63 62 57 55 38 35 38 35 48 50
7 6 3 10 11 10 4 11 12 18 15 15 12 39 42 57 77 82 84 92 101 103 96 106 107 108 104 100 95 93 87 85 84 82 91 72 67 47 54 66 64 67 50 41 39 45 40 43 44
21 22 19 11 9 8 10 17 6 19 20 10 18 32 42 45 51 61 79 91 95 101 102 104 99 97 88 77 74 78 78 78 82 87 69 54 49 74 69 64 71 61 43 46 44 47 45 40 46
Wind_Direction_500mb
264 272 340 25 52 65 274 273 274 279 308 305 38 106 121 38 21 107 84 116 165 164 171 183 184 181 187 187 178 171 168 163 158 152 147 143 141 138 135 131 128 127 124 123 121 119 113 110 111
150 199 29 94 98 43 271 241 238 262 277 156 79 105 46 73 34 136 123 139 176 151 168 178 187 189 182 213 183 176 174 169 162 154 148 144 141 138 136 132 129 127 125 124 123 119 114 109 109
120 203 348 121 119 197 236 240 277 49 46 25 111 67 99 152 121 198 233 173 189 193 205 204 196 207 218 201 194 181 174 166 158 153 148 143 140 137 135 133 130 128 126 125 126 120 115 115 107
115 92 175 90 255 251 243 281 290 174 36 43 95 73 131 123 181 242 282 243 223 227 240 225 226 208 214 223 217 182 171 164 157 152 148 144 139 135 135 133 130 128 127 127 128 127 125 127 116
26 115 49 325 266 266 275 265 287 143 135 36 114 160 208 263 302 290 272 254 246 220 195 197 192 206 205 178 189 177 169 161 157 153 150 146 140 137 136 132 129 128 127 126 129 131 128 132 128
324 89 63 270 268 278 264 163 148 93 140 178 110 145 226 314 293 300 270 231 236 238 192 182 178 46 6 185 187 180 171 168 162 155 153 148 142 138 135 133 130 128 126 127 131 131 115 115 123
152 88 225 250 295 304 278 186 102 122 156 85 147 150 194 303 307 336 350 193 213 214 218 216 151 167 341 353 167 163 157 161 155 156 155 148 141 139 135 133 129 125 124 124 131 137 124 112 128
216 113 280 248 272 288 286 102 103 62 35 128 141 301 321 340 303 324 10 199 189 204 195 198 205 224 302 52 76 133 150 151 155 156 155 148 140 138 135 132 127 123 122 121 127 140 140 132 129
210 50 277 260 261 267 350 114 67 101 130 177 228 256 319 324 278 281 345 168 195 184 199 211 221 230 122 118 160 151 146 153 155 157 155 149 142 140 135 131 125 122 122 125 130 139 146 148 151
129 129 245 226 228 256 25 107 143 141 94 251 140 77 43 28 267 299 292 228 226 264 251 235 214 167 153 158 167 159 152 152 155 157 159 150 145 142 138 134 130 127 130 129 132 139 142 149 159
196 224 273 277 272 254 130 86 152 134 262 219 220 155 144 219 234 266 257 236 224 200 221 206 174 174 172 164 161 157 159 154 159 165 157 155 150 147 144 139 135 132 132 137 134 129 132 129 150
235 261 261 277 246 41 137 135 127 213 229 194 156 170 169 179 228 257 252 239 226 223 229 204 187 177 168 168 172 160 154 165 161 162 163 161 155 152 148 144 138 139 141 137 131 132 134 126 144
202 267 307 309 260 129 147 173 167 223 193 172 155 163 159 189 226 249 253 234 223 218 208 214 204 191 175 169 165 160 165 163 161 161 163 166 159 152 150 153 153 152 156 142 144 129 130 144 144
296 314 307 310 254 201 120 134 128 171 166 180 170 157 175 195 213 228 228 229 219 213 207 206 193 179 178 173 168 166 163 162 163 167 167 163 157 163 162 160 161 172 171 153 145 138 160 174 159
318 337 321 295 303 168 129 100 233 175 186 182 180 182 195 201 215 243 211 224 225 215 192 188 195 180 177 178 177 171 167 169 167 163 157 159 164 170 170 169 174 176 180 178 168 181 182 179 173
332 342 338 303 288 227 169 248 227 189 181 170 187 190 207 201 218 220 200 212 216 215 197 189 181 176 174 170 165 166 168 166 160 160 161 159 163 173 178 179 174 185 193 194 200 218 215 203 215
311 253 238 302 230 190 142 242 230 200 197 173 178 176 194 204 213 207 200 200 212 214 196 189 187 183 179 176 169 164 168 167 165 165 168 169 181 184 186 187 193 201 211 212 231 234 230 239 242
216 228 308 294 288 155 229 255 222 204 202 198 192 162 186 200 226 206 198 188 198 201 205 197 184 179 177 176 181 174 174 174 177 171 173 181 196 197 198 206 214 222 229 227 237 241 235 239 239
299 301 275 279 254 153 228 184 224 212 208 199 204 196 190 198 216 209 203 190 190 191 187 185 177 179 178 186 184 185 183 182 186 179 185 195 205 211 213 218 221 223 226 232 241 247 243 236 231
248 265 275 281 246 175 234 244 214 182 215 197 200 202 191 193 202 208 204 194 190 185 189 183 184 185 188 188 186 187 190 191 192 194 196 203 210 218 222 231 234 236 234 234 241 243 245 239 236
250 249 263 245 292 266 177 307 201 216 196 209 214 210 198 194 200 201 201 198 191 189 190 193 194 191 189 189 197 196 200 204 196 196 205 210 217 223 227 232 239 236 236 239 250 252 248 245 245
256 245 241 266 129 243 111 272 228 211 214 189 212 197 195 202 206 202 199 200 199 193 191 193 194 197 197 195 198 198 194 196 200 203 207 211 223 226 233 238 242 239 246 249 258 259 257 249 252
246 252 247 241 222 134 292 71 265 179 227 219 203 199 199 202 206 204 201 204 201 201 195 195 198 199 195 193 192 189 192 197 199 205 210 222 225 230 237 240 242 240 245 251 255 255 251 244 254
246 220 43 34 59 297 245 180 254 226 212 205 199 204 198 201 207 208 205 203 200 202 199 194 193 191 187 188 193 198 203 204 207 214 222 227 230 236 240 241 243 247 252 251 253 254 249 259 266
208 102 306 326 332 247 256 255 232 239 240 192 185 197 202 200 198 204 206 206 202 201 199 197 192 189 191 196 202 206 209 212 216 220 224 227 230 233 238 241 244 247 253 254 254 248 252 262 268
193 169 172 213 215 257 297 246 255 241 262 198 187 191 195 195 198 203 210 211 208 207 204 202 200 197 201 208 211 212 216 220 226 229 232 232 232 233 242 246 246 247 251 252 254 254 257 260 256
203 166 190 148 129 52 239 287 310 300 189 158 187 198 194 193 198 205 207 216 215 212 211 210 209 210 212 214 216 219 222 226 232 237 243 246 244 241 245 255 252 254 260 244 243 241 246 254 252
189 172 109 9 154 249 271 260 238 303 156 324 173 193 208 209 206 213 210 214 221 222 220 216 217 217 217 218 221 222 224 231 237 244 247 250 242 243 241 247 250 247 253 232 236 237 247 254 249
154 169 119 145 153 182 276 263 225 216 204 201 211 182 199 210 219 215 218 224 224 226 222 223 221 222 223 223 224 224 228 233 241 246 250 252 228 244 236 250 249 253 228 236 239 235 253 250 242
207 198 178 186 206 192 173 248 262 230 238 277 220 193 180 187 205 224 228 231 228 227 223 228 230 226 224 227 232 234 235 238 244 247 263 274 248 239 241 252 246 249 231 239 231 241 246 237 232
Wind_Speed_850mb
1 3 3 4 8 9 9 12 7 18 14 7 11 13 20 16 8 10 14 16 33 44 39 42 48 58 57 50 54 52 50 46 43 50 56 58 58 60 61 59 59 56 56 55 56 57 55 50 48
4 4 4 4 8 2 11 13 18 14 24 6 13 15 18 9 17 21 14 8 24 36 34 42 54 62 59 44 54 56 51 47 46 55 59 61 64 67 65 60 57 56 56 55 56 55 49 44 42
3 4 1 7 6 8 10 11 13 13 30 5 10 20 8 8 4 11 7 7 41 49 44 46 51 47 60 67 60 62 57 52 53 59 62 65 68 69 65 63 59 56 57 57 57 57 53 40 39
4 2 3 6 14 20 13 31 40 19 9 21 7 12 4 4 6 6 10 13 22 49 47 61 56 69 69 94 83 63 56 51 58 58 61 64 68 68 65 63 60 57 56 55 58 58 46 36 35
3 2 5 5 14 16 22 42 4 14 12 17 1 5 6 12 14 15 13 12 15 24 31 28 44 51 66 76 89 77 67 55 62 62 61 63 68 68 65 61 59 56 54 55 59 57 41 34 33
4 3 4 7 14 15 13 17 21 23 12 7 10 11 7 19 17 13 10 12 17 21 31 42 55 24 59 79 89 83 71 60 68 65 61 66 70 68 64 60 57 54 52 51 54 54 44 34 32
10 7 9 9 20 17 8 28 20 11 11 4 16 8 4 8 18 17 7 12 20 26 29 29 45 29 51 99 84 77 76 82 77 68 65 68 69 66 64 58 56 53 49 49 50 54 47 37 23
7 9 6 9 9 19 19 8 25 16 4 15 4 5 4 19 13 15 8 5 18 22 37 43 37 43 46 38 31 55 65 80 79 72 67 66 68 63 61 56 55 53 49 49 49 51 47 39 26
7 3 9 14 6 12 20 8 14 20 18 9 2 4 8 19 19 12 6 7 12 24 30 37 33 24 6 18 33 34 45 70 77 72 65 65 67 64 57 55 54 51 48 48 48 47 45 38 25
9 6 15 14 6 11 10 10 28 9 4 1 6 1 4 2 10 15 14 6 15 17 15 23 20 26 34 35 42 69 73 56 65 67 67 64 64 63 60 55 52 49 47 42 40 38 38 35 23
9 12 23 43 27 3 20 10 12 19 1 11 6 18 13 9 9 12 20 22 23 19 20 20 30 32 39 45 66 76 83 71 64 64 63 63 64 62 61 55 48 47 39 35 29 28 28 27 22
4 26 38 44 17 3 13 26 11 10 12 10 17 24 20 19 20 22 26 26 26 26 27 25 34 37 55 71 78 71 77 82 82 75 67 61 64 60 55 50 44 39 35 30 27 23 20 19 19
10 15 26 42 17 20 39 16 17 13 23 16 25 27 31 22 21 28 32 29 32 33 45 36 40 45 57 81 77 83 78 78 78 78 74 64 62 54 46 44 40 34 32 28 23 20 14 13 15
18 24 32 25 18 9 9 7 4 10 33 26 28 27 25 28 33 32 32 31 33 40 46 50 51 61 67 75 75 81 75 74 72 72 72 66 58 51 48 40 34 33 27 23 17 15 11 15 15
25 13 18 19 8 5 28 5 11 29 33 39 29 30 25 31 27 20 28 29 34 39 50 69 57 60 66 77 85 86 79 78 76 71 65 64 53 46 40 35 34 30 23 20 15 14 15 15 10
11 5 7 8 4 14 18 11 12 34 42 30 18 31 30 28 20 15 27 28 34 38 37 52 57 63 65 76 91 86 85 81 75 73 63 53 43 36 37 32 29 26 25 18 12 18 15 12 9
6 10 10 18 14 6 5 8 11 40 37 32 29 34 29 24 25 19 21 31 33 32 35 55 60 62 77 81 88 74 74 80 80 70 58 56 46 35 33 31 31 26 22 21 21 24 21 17 19
12 8 6 11 12 7 3 7 9 44 37 37 44 28 33 35 31 21 21 29 36 34 34 54 69 62 69 76 88 72 71 77 78 70 66 69 43 37 37 33 27 28 30 31 33 31 28 27 27
12 13 17 23 20 12 15 15 22 33 26 27 35 37 46 44 34 27 24 30 36 40 43 49 67 63 74 75 83 84 84 76 71 76 83 46 35 40 39 37 35 37 42 38 35 37 37 37 37
18 26 28 20 8 14 14 16 15 23 27 40 44 39 56 52 45 39 34 40 43 49 57 62 66 63 69 70 82 86 87 75 81 79 64 48 46 45 44 41 42 42 45 43 44 45 43 41 43
29 26 27 17 9 8 3 10 5 14 12 28 46 59 60 70 62 55 48 49 52 56 65 71 70 71 78 84 75 72 81 70 87 91 68 53 53 48 42 41 42 48 54 49 45 47 47 45 46
22 21 17 11 5 6 7 10 9 14 32 20 40 57 69 73 73 65 58 57 61 60 65 71 74 76 77 77 74 77 83 83 97 92 72 60 61 55 53 48 48 54 52 50 51 48 50 51 52
25 32 15 11 7 4 7 1 13 9 19 20 30 59 75 85 87 85 73 64 60 64 67 70 72 75 80 81 79 81 79 81 84 83 73 70 65 60 59 58 57 58 59 62 58 57 59 54 53
33 9 6 6 4 7 10 11 8 11 19 29 46 68 75 85 93 89 81 71 71 69 69 73 79 83 90 87 83 77 73 72 74 77 73 68 67 67 67 66 62 59 61 63 64 63 58 56 53
14 9 4 7 4 14 11 7 14 19 26 25 44 74 83 90 85 95 90 87 81 83 82 81 87 95 94 85 80 78 73 70 70 68 69 70 70 68 65 64 65 64 57 65 67 68 63 60 59
15 18 11 11 8 11 7 10 11 12 16 20 63 81 79 81 95 94 100 92 91 91 91 92 98 101 96 87 83 80 76 76 78 75 72 71 70 63 52 51 57 53 56 69 62 65 64 59 55
9 8 15 10 3 3 7 15 15 13 1 3 31 50 66 78 92 101 100 97 95 99 103 104 102 105 101 92 84 86 86 88 85 80 82 82 75 65 59 56 62 62 63 38 41 40 41 44 49
21 12 6 3 7 8 9 11 12 8 2 5 15 40 64 82 87 90 100 103 99 98 105 107 106 106 102 98 94 90 85 85 85 85 88 85 82 65 57 63 62 57 55 38 35 38 35 48 50
7 6 3 10 11 10 4 11 12 18 15 15 12 39 42 57 77 82 84 92 101 103 96 106 107 108 104 100 95 93 87 85 84 82 91 72 67 47 54 66 64 67 50 41 39 45 40 43 44
21 22 19 11 9 8 10 17 6 19 20 10 18 32 42 45 51 61 79 91 95 101 102 104 99 97 88 77 74 78 78 78 82 87 69 54 49 74 69 64 71 61 43 46 44 47 45 40 46
Wind_Direction_850mb
264 272 340 25 52 65 274 273 274 279 308 305 38 106 121 38 21 107 84 116 165 164 171 183 184 181 187 187 178 171 168 163 158 152 147 143 141 138 135 131 128 127 124 123 121 119 113 110 111
150 199 29 94 98 43 271 241 238 262 277 156 79 105 46 73 34 136 123 139 176 151 168 178 187 189 182 213 183 176 174 169 162 154 148 144 141 138 136 132 129 127 125 124 123 119 114 109 109
120 203 348 121 119 197 236 240 277 49 46 25 111 67 99 152 121 198 233 173 189 193 205 204 196 207 218 201 194 181 174 166 158 153 148 143 140 137 135 133 130 128 126 125 126 120 115 115 107
115 92 175 90 255 251 243 281 290 174 36 43 95 73 131 123 181 242 282 243 223 227 240 225 226 208 214 223 217 182 171 164 157 152 148 144 139 135 135 133 130 128 127 127 128 127 125 127 116
26 115 49 325 266 266 275 265 287 143 135 36 114 160 208 263 302 290 272 254 246 220 195 197 192 206 205 178 189 177 169 161 157 153 150 146 140 137 136 132 129 128 127 126 129 131 128 132 128
324 89 63 270 268 278 264 163 148 93 140 178 110 145 226 314 293 300 270 231 236 238 192 182 178 46 6 185 187 180 171 168 162 155 153 148 142 138 135 133 130 128 126 127 131 131 115 115 123
152 88 225 250 295 304 278 186 102 122 156 85 147 150 194 303 307 336 350 193 213 214 218 216 151 167 341 353 167 163 157 161 155 156 155 148 141 139 135 133 129 125 124 124 131 137 124 112 128
216 113 280 248 272 288 286 102 103 62 35 128 141 301 321 340 303 324 10 199 189 204 195 198 205 224 302 52 76 133 150 151 155 156 155 148 140 138 135 132 127 123 122 121 127 140 140 132 129
210 50 277 260 261 267 350 114 67 101 130 177 228 256 319 324 278 281 345 168 195 184 199 211 221 230 122 118 160 151 146 153 155 157 155 149 142 140 135 131 125 122 122 125 130 139 146 148 151
129 129 245 226 228 256 25 107 143 141 94 251 140 77 43 28 267 299 292 228 226 264 251 235 214 167 153 158 167 159 152 152 155 157 159 150 145 142 138 134 130 127 130 129 132 139 142 149 159
196 224 273 277 272 254 130 86 152 134 262 219 220 155 144 219 234 266 257 236 224 200 221 206 174 174 172 164 161 157 159 154 159 165 157 155 150 147 144 139 135 132 132 137 134 129 132 129 150
235 261 261 277 246 41 137 135 127 213 229 194 156 170 169 179 228 257 252 239 226 223 229 204 187 177 168 168 172 160 154 165 161 162 163 161 155 152 148 144 138 139 141 137 131 132 134 126 144
202 267 307 309 260 129 147 173 167 223 193 172 155 163 159 189 226 249 253 234 223 218 208 214 204 191 175 169 165 160 165 163 161 161 163 166 159 152 150 153 153 152 156 142 144 129 130 144 144
296 314 307 310 254 201 120 134 128 171 166 180 170 157 175 195 213 228 228 229 219 213 207 206 193 179 178 173 168 166 163 162 163 167 167 163 157 163 162 160 161 172 171 153 145 138 160 174 159
318 337 321 295 303 168 129 100 233 175 186 182 180 182 195 201 215 243 211 224 225 215 192 188 195 180 177 178 177 171 167 169 167 163 157 159 164 170 170 169 174 176 180 178 168 181 182 179 173
332 342 338 303 288 227 169 248 227 189 181 170 187 190 207 201 218 220 200 212 216 215 197 189 181 176 174 170 165 166 168 166 160 160 161 159 163 173 178 179 174 185 193 194 200 218 215 203 215
311 253 238 302 230 190 142 242 230 200 197 173 178 176 194 204 213 207 200 200 212 214 196 189 187 183 179 176 169 164 168 167 165 165 168 169 181 184 186 187 193 201 211 212 231 234 230 239 242
216 228 308 294 288 155 229 255 222 204 202 198 192 162 186 200 226 206 198 188 198 201 205 197 184 179 177 176 181 174 174 174 177 171 173 181 196 197 198 206 214 222 229 227 237 241 235 239 239
299 301 275 279 254 153 228 184 224 212 208 199 204 196 190 198 216 209 203 190 190 191 187 185 177 179 178 186 184 185 183 182 186 179 185 195 205 211 213 218 221 223 226 232 241 247 243 236 231
248 265 275 281 246 175 234 244 214 182 215 197 200 202 191 193 202 208 204 194 190 185 189 183 184 185 188 188 186 187 190 191 192 194 196 203 210 218 222 231 234 236 234 234 241 243 245 239 236
250 249 263 245 292 266 177 307 201 216 196 209 214 210 198 194 200 201 201 198 191 189 190 193 194 191 189 189 197 196 200 204 196 196 205 210 217 223 227 232 239 236 236 239 250 252 248 245 245
256 245 241 266 129 243 111 272 228 211 214 189 212 197 195 202 206 202 199 200 199 193 191 193 194 197 197 195 198 198 194 196 200 203 207 211 223 226 233 238 242 239 246 249 258 259 257 249 252
246 252 247 241 222 134 292 71 265 179 227 219 203 199 199 202 206 204 201 204 201 201 195 195 198 199 195 193 192 189 192 197 199 205 210 222 225 230 237 240 242 240 245 251 255 255 251 244 254
246 220 43 34 59 297 245 180 254 226 212 205 199 204 198 201 207 208 205 203 200 202 199 194 193 191 187 188 193 198 203 204 207 214 222 227 230 236 240 241 243 247 252 251 253 254 249 259 266
208 102 306 326 332 247 256 255 232 239 240 192 185 197 202 200 198 204 206 206 202 201 199 197 192 189 191 196 202 206 209 212 216 220 224 227 230 233 238 241 244 247 253 254 254 248 252 262 268
193 169 172 213 215 257 297 246 255 241 262 198 187 191 195 195 198 203 210 211 208 207 204 202 200 197 201 208 211 212 216 220 226 229 232 232 232 233 242 246 246 247 251 252 254 254 257 260 256
203 166 190 148 129 52 239 287 310 300 189 158 187 198 194 193 198 205 207 216 215 212 211 210 209 210 212 214 216 219 222 226 232 237 243 246 244 241 245 255 252 254 260 244 243 241 246 254 252
189 172 109 9 154 249 271 260 238 303 156 324 173 193 208 209 206 213 210 214 221 222 220 216 217 217 217 218 221 222 224 231 237 244 247 250 242 243 241 247 250 247 253 232 236 237 247 254 249
154 169 119 145 153 182 276 263 225 216 204 201 211 182 199 210 219 215 218 224 224 226 222 223 221 222 223 223 224 224 228 233 241 246 250 252 228 244 236 250 249 253 228 236 239 235 253 250 242
207 198 178 186 206 192 173 248 262 230 238 277 220 193 180 187 205 224 228 231 228 227 223 228 230 226 224 227 232 234 235 238 244 247 263 274 248 239 241 252 246 249 231 239 231 241 246 237 232